STARLINK-37061, 68185

Orbit data source: Space-Track

STARLINK-37061, 68185 is a payload satellite owned by SpaceX/Seattle (US) in LEO that was launched on Sat, 14 Mar 2026 UTC via an FALCON 9 launch vehicle from the Air Force Eastern Test Range (AFETR). Payload-class satellites include a variety of spacecraft equipped with specific instruments for various scientific and technological missions. These include communications satellites like Starlink; space stations such as the ISS; scientific satellites like the Hubble; Earth observation satellites from companies like Planet Labs, Umbra, and HawkEye 360; GPS; miniature CubeSats for education and research; and military/defense satellites.

Loading next visibility...
Identifier
68185, 2026-050U
Orbit
LEO
Country
Flag of USUS
Related business
Manufacturer
SpaceX/Seattle
Mission
Operational spacecraft
Bus & Motor
STARLINK V2MO, Unknown motor
Mass
575 kg wet, ~530 kg dry
Launch date (UTC)
2026-03-14 (3 months ago)
Launch vehicle
FALCON 9
Launch site
Air Force Eastern Test Range (AFETR)
Object type
Payload
Rocket body
Debris
Shape & HBR
Unknown shape, 17.7 m
Radar Cross Section
Large (>1 m²)

Expand to show TLE details & history
Last TLE update: 17 hours ago

TLE from 17 hours ago
0 STARLINK-37061
1 68185U 26050U   26171.20946778  .00019919  00000-0  59904-3 0  9990
2 68185  53.1589 148.8346 0001120  71.5875 288.5249 15.34402568 16409
Epoch: 2026-06-20T05:01Z
TLE epoch observation values (Epoch: 2026-06-20T05:01:38.016Z)
Latitude
-0.00003°
Longitude
164.99881°
Altitude
463.353 km
Speed
7.636 km/s
True Right ascension
09h 55m 20s
True Declination
0° 00' 00"
Sunlit
Object was in daylight at epoch
Visualization orbit readout
Latitude
Unknown
Longitude
Unknown
Altitude
Unknown
Speed
Unknown
Apparent Right ascension
Unknown
Apparent Declination
Unknown
Sunlit
N/A
Visualization observer readout
Local Sidereal Time
08:42:01
Azimuth
Unknown
Elevation
Unknown
Doppler factor
Unknown
Orbital elements
Apogee altitude
463.719 km
Perigee altitude
462.186 km
Semi-major axis
6,841.09 km
Eccentricity
0.00011
Inclination
53.1589°
RAAN
148.8346°
Arg. of periapsis
71.5875°
True anomaly
288.51273°
Mean anomaly
288.5249°
Eccentric anomaly
288.51882°
Mean motion
3.83579 °/min
Orbital period
93.85 mins
BSTAR
0.00059904
Loading maneuver chart data...
Computing Atmospheric mass density...
Loading historical data...
Loading historical data...
Loading historical data...
Loading historical data...
Loading historical data...
Loading historical data...
Loading historical data...

Documentation

Showing up to 5 results
|